Regional Weather Roundup
Issued by NWS

Home | Current Version | Previous Version | Text Only | Print | Product List | Glossary On
Versions: 1 2 3 4 5 6 7 8 9 10 11 12 13 14 15 16 17 18 19 20 21 22 23 24 25 26 27 28 29 30 31 32 33 34 35 36 37 38 39 40 41 42 43 44 45 46 47 48 49 50
377
ASUS43 KLOT 031308
RWRIL

ILLINOIS REGIONAL WEATHER ROUNDUP
NATIONAL WEATHER SERVICE CHICAGO/ROMEOVILLE IL
800 AM CDT TUE MAY 03 2016

NOTE: "FAIR" INDICATES FEW OR NO CLOUDS BELOW 12,000 FEET WITH NO
SIGNIFICANT WEATHER AND/OR OBSTRUCTIONS TO VISIBILITY.

* THESE STATIONS ARE NOT UNDER NWS QUALITY CONTROL. THEY ALSO MAY NOT
  REPORT WEATHER SUCH AS PRECIPITATION OR FOG.

ILZ001-002-007-009-015-016-024-031400-
NORTHWEST ILLINOIS

CITY           SKY/WX    TMP DP  RH WIND       PRES   REMARKS
MOLINE         FAIR      49  43  80 W3        30.01S
STERLING*      FAIR      50  45  81 W7        30.00F
SAVANNA*       FAIR      49  44  83 W5        30.00S
$$

ILZ003-004-008-010-011-017-018-031400-
NORTH CENTRAL ILLINOIS

CITY           SKY/WX    TMP DP  RH WIND       PRES   REMARKS
ROCKFORD       PTSUNNY   48  42  80 CALM      30.00S
FREEPORT*      FAIR      48  42  80 W6        30.00F
ROCHELLE*      PTSUNNY   47  43  87 CALM      30.00S
DE KALB*       FAIR      52  41  67 W10       29.99S
$$

ILZ005-006-012>014-019>023-031400-
NORTHEAST ILLINOIS

CITY           SKY/WX    TMP DP  RH WIND       PRES   REMARKS
CHICAGO-OHARE  PTSUNNY   49  36  61 W7        29.97S
CHICAGO-MIDWAY PTSUNNY   52  34  50 W6        29.98S
AURORA         PTSUNNY   45  40  82 CALM      29.99S
LANSING*       FAIR      48  38  68 CALM      29.99S
JOLIET*        FAIR      52  38  60 W3        29.99S
WAUKEGAN       FAIR      52  38  58 VRB6      29.95F
DUPAGE AIRPORT CLOUDY    47  39  74 CALM      29.97F
KANKAKEE*      FAIR      51  40  65 W7        30.00S
WHEELING       PTSUNNY   50  38  63 CALM      29.98F
MORRIS*        FAIR      49  41  73 W5        29.99S
ROMEOVILLE*    FAIR      49  37  64 W3        29.99S
NORTHERLY ISL    N/A     54  32  43 W8          N/A
NORTHERLY ISL    N/A     54  32  43 W8          N/A
$$

LMZ740>746-031400-
SOUTHERN LAKE MICHIGAN

STATION/POSITION SKY/WX   TEMP    WIND        PRES    VSBY  WAVE
                          AIR SEA DIR/SP/G                  HT/PER
                          (F)     (DEG/KT/KT) (MB)    (MI)  (FT/S)
SOUTHERN BUOY              42 41  170/  4/  6 1014.5F         0
HARRISON CRIB              49     290/  4/  5   N/A
BURNHAM HARBOR             54     270/  7/  9   N/A
CALUMET HARBOR             46     210/  1/  3 1014.7R
BURNS HARBOR               47     310/  3/  6 1015.6S
MICHIGAN CITY              49     310/  1/  2   N/A
ST. JOSEPH                 46 48                N/A           1/ 3
$$

ILZ025>027-034>036-040-047-049-050-058-095>099-031400-
WEST-CENTRAL ILLINOIS

CITY           SKY/WX    TMP DP  RH WIND       PRES   REMARKS
QUINCY         CLOUDY    50  46  86 NW8       30.04R
GALESBURG*     CLOUDY    47  46  97 NW3       30.02S
MACOMB*        PTSUNNY   49  46  88 NW7       30.05S
JACKSONVILLE*  FAIR      53  47  81 NW5       30.03S
PITTSFIELD*    PTSUNNY   53  48  82 NW6       30.05S
$$

ILZ028>032-037-038-041>044-048-051>054-059>061-031400-
CENTRAL ILLINOIS

CITY           SKY/WX    TMP DP  RH WIND       PRES   REMARKS
PONTIAC        FAIR      50  44  80 W8        30.01S
BLOOMINGTON    FAIR      51  45  80 W8        30.01S
DECATUR        FAIR      54  41  61 NW8       30.01R
PEORIA         FAIR      52  45  77 CALM      30.02S
LACON*         FAIR      48  43  83 CALM      30.01S
LINCOLN*       FAIR      51  45  79 CALM      30.01S
SPRINGFIELD    FAIR      52  47  83 CALM      30.03R
TAYLORVILLE    FAIR      51  46  82 NW5       30.02S
$$

ILZ033-039-045-046-055>057-062-063-031400-
EAST-CENTRAL ILLINOIS

CITY           SKY/WX    TMP DP  RH WIND       PRES   REMARKS
CHAMPAIGN      FAIR      51  43  74 NW8       29.99S
RANTOUL*       FAIR      52  43  72 N9G17     29.99S
MATTOON        CLOUDY    50  43  77 NW9       29.99R
PARIS*         CLOUDY    49  46  89 CALM      29.99S
$$

ILZ079-100>102-031400-
SOUTHWEST ILLINOIS

CITY           SKY/WX    TMP DP  RH WIND       PRES   REMARKS
ALTON          MOSUNNY   52  48  87 W6        30.03S
BELLEVILLE     FAIR      55  54  97 NW7       30.02R
CAHOKIA*       FAIR      56  49  77 NW7       30.03R
SPARTA*        PTSUNNY   54  50  87 NW7       30.03S
$$

ILZ064>066-069>071-074>076-080>082-084>086-088>090-092>094-031400-
SOUTH-CENTRAL ILLINOIS

CITY           SKY/WX    TMP DP  RH WIND       PRES   REMARKS
CARBONDALE     CLOUDY    54  50  86 NW7       30.02R
CAIRO*         CLOUDY    54  50  87 NW6       30.02S
EFFINGHAM*     FAIR      52  47  82 NW6       30.02S
MARION         CLOUDY    54  52  94 NW12      30.02R
MT. VERNON     PTSUNNY   54  46  76 NW3       30.01S
CENTRALIA*     FAIR      55  51  85 N8        30.01S
SALEM*         FAIR      55  49  81 NW8       30.02R
METROPOLIS*    FAIR      55  52  92 NW5       30.02R
$$

ILZ067-068-072-073-078-083-087-091-031400-
SOUTHEAST ILLINOIS

CITY           SKY/WX    TMP DP  RH WIND       PRES   REMARKS
LAWRENCEVILLE  FAIR      52  48  86 NW12      29.98S
FLORA*         FAIR      54  49  83 N5        30.01R
FAIRFIELD*     FAIR      54  49  84 N5        30.00R
HARRISBURG*    CLOUDY    55  51  89 NW6       30.01R
ROBINSON*      PTSUNNY   50  48  92 NW7       30.00R
CARMI*         FAIR      54  50  87 NW10      29.99S
$$

ABBREVIATIONS USED IN REMARKS
   TC - TEMPERATURE IN CELSIUS
  WCI - WIND CHILL INDEX
   HX - HEAT INDEX
  VSB - VISIBILITY
$$





USA.gov is the U.S. government's official web portal to all federal, state and local government web resources and services.